London-Corbin, KY

5:18 PM EDT on May 24, 2017 (GMT -0400)
London-Corbin / McKee

Weather History for KLOZ - July, 2013

Change the Weather History Date:

Friday, July 5, 2013

  Actual Average Record
Temperature  
Mean Temperature 73 °F 76 °F  
Max Temperature 80 °F 86 °F 99 °F (2012)
Min Temperature 66 °F 66 °F 47 °F (1967)
Degree Days  
Heating Degree Days 0 0  
Month to date heating degree days 0 0  
Since 1 June heating degree days 0 9  
Since 1 July heating degree days 0 0  
Cooling Degree Days 8 11  
Month to date cooling degree days 36 55  
Year to date cooling degree days 367 412  
Since 1 June cooling degree days 267 298  
Growing Degree Days 23 (Base 50)    
Moisture  
Dew Point 66 °F    
Average Humidity 80    
Maximum Humidity 97    
Minimum Humidity 62    
Precipitation  
Precipitation 0.33 in 0.13 in 2.64 in (1983)
Month to date precipitation 2.28 0.67  
Year to date precipitation 32.53  
Sea Level Pressure  
Sea Level Pressure 30.14 in    
Wind  
Wind Speed 4 mph (South)    
Max Wind Speed 16 mph    
Max Gust Speed 24 mph    
Visibility 9 miles    
Events Rain , Thunderstorm    
T = Trace of Precipitation, MM = Missing Value Source: NWS Daily Summary

Daily Weather History Graph

Daily Weather History Graph

Search for Another Location

Airport or City:

Trip Planner

Search our weather history database for the weather conditions in past years. The results will help you decide how hot, cold, wet, or windy it might be!

Date:

Astronomy

Jul. 05, 2013 Rise Set
Actual Time 6:22 AM EDT 8:59 PM EDT
Civil Twilight 5:51 AM EDT 9:30 PM EDT
Nautical Twilight 5:13 AM EDT 10:08 PM EDT
Astronomical Twilight 4:30 AM EDT 10:50 PM EDT
Moon 4:19 AM EDT (7/5) 6:54 PM EDT (7/5)
Length of Visible Light 15h 38m
Length of Day
14h 37m
Waning Crescent, 6% of the Moon is Illuminated
Jul 5
Waning Crescent
Jul 8
New
Jul 15
First Quarter
Jul 22
Full
Jul 29
Last Quarter

Hourly Weather History & Observations

Time (EDT) Temp. Heat Index Dew Point Humidity Pressure Visibility Wind Dir Wind Speed Gust Speed Precip Events Conditions
12:51 AM 66.2 °F - 64.4 °F 94% 30.17 in 10.0 mi SSW 3.5 mph - 0.04 in Rain Light Rain
12:53 AM 66.0 °F - 64.9 °F 96% 30.14 in 10.0 mi SW 3.5 mph - 0.04 in Rain Light Rain
1:20 AM 66.2 °F - 64.4 °F 94% 30.15 in 10.0 mi East 5.8 mph - 0.01 in Rain Light Rain
1:46 AM 66.2 °F - 64.4 °F 94% 30.15 in 10.0 mi Calm Calm - 0.02 in Rain Light Rain
1:53 AM 66.0 °F - 64.9 °F 96% 30.13 in 7.0 mi West 9.2 mph - 0.03 in Rain Rain
2:16 AM 66.2 °F - 64.4 °F 94% 30.14 in 10.0 mi NE 3.5 mph - 0.03 in Rain Light Rain
2:25 AM 66.2 °F - 64.4 °F 94% 30.14 in 10.0 mi Calm Calm - 0.03 in   Overcast
2:32 AM 66.2 °F - 64.4 °F 94% 30.14 in 3.0 mi Calm Calm - 0.08 in Rain Heavy Rain
2:53 AM 66.0 °F - 64.9 °F 96% 30.11 in 10.0 mi Calm Calm - 0.08 in   Overcast
3:53 AM 66.0 °F - 64.9 °F 96% 30.10 in 10.0 mi Calm Calm - 0.00 in   Overcast
4:53 AM 66.0 °F - 64.9 °F 96% 30.10 in 10.0 mi Calm Calm - 0.01 in   Overcast
5:53 AM 66.0 °F - 64.9 °F 96% 30.11 in 10.0 mi Calm Calm - N/A   Overcast
6:53 AM 66.9 °F - 64.9 °F 93% 30.12 in 10.0 mi Calm Calm - N/A   Overcast
7:53 AM 68.0 °F - 66.0 °F 93% 30.14 in 10.0 mi Calm Calm - N/A   Overcast
8:53 AM 69.1 °F - 66.9 °F 93% 30.16 in 10.0 mi Calm Calm - N/A   Overcast
9:53 AM 71.1 °F - 68.0 °F 90% 30.16 in 10.0 mi South 4.6 mph - N/A   Overcast
10:53 AM 73.9 °F - 68.0 °F 82% 30.16 in 10.0 mi SSE 8.1 mph - N/A   Mostly Cloudy
11:53 AM 75.9 °F - 66.9 °F 74% 30.16 in 10.0 mi South 10.4 mph - N/A   Partly Cloudy
12:17 PM 78.8 °F - 66.2 °F 65% 30.18 in 10.0 mi South 10.4 mph - N/A   Mostly Cloudy
12:53 PM 78.1 °F - 66.0 °F 66% 30.15 in 10.0 mi SSW 11.5 mph 24.2 mph N/A   Overcast
1:53 PM 78.1 °F - 66.0 °F 66% 30.15 in 10.0 mi South 10.4 mph 18.4 mph N/A   Overcast
2:53 PM 78.1 °F - 66.9 °F 68% 30.14 in 10.0 mi South 8.1 mph - N/A   Overcast
3:03 PM 77.0 °F - 66.2 °F 69% 30.17 in 10.0 mi South 10.4 mph - 0.00 in Rain Light Rain
3:53 PM 78.1 °F - 66.9 °F 68% 30.13 in 10.0 mi South 10.4 mph 19.6 mph 0.00 in   Mostly Cloudy
4:53 PM 80.1 °F 82.3 °F 66.9 °F 64% 30.12 in 10.0 mi South 11.5 mph 18.4 mph N/A   Scattered Clouds
5:53 PM 79.0 °F - 66.9 °F 66% 30.12 in 10.0 mi SSW 9.2 mph - N/A   Overcast
6:23 PM 75.2 °F - 69.8 °F 83% 30.17 in 1.8 mi SSW 12.7 mph 20.7 mph 0.10 in Rain Heavy Rain
6:35 PM 73.4 °F - 66.2 °F 78% 30.17 in 2.5 mi SE 3.5 mph 16.1 mph 0.21 in Rain , Thunderstorm Light Thunderstorms and Rain
6:42 PM 71.6 °F - 68.0 °F 88% 30.17 in 10.0 mi Calm Calm - 0.21 in Thunderstorm Thunderstorm
6:53 PM 72.0 °F - 68.0 °F 87% 30.13 in 10.0 mi Calm Calm - 0.21 in   Overcast
7:53 PM 72.0 °F - 70.0 °F 93% 30.14 in 10.0 mi SE 3.5 mph - N/A   Mostly Cloudy
8:53 PM 72.0 °F - 69.1 °F 91% 30.15 in 10.0 mi South 3.5 mph - N/A   Mostly Cloudy
9:53 PM 71.1 °F - 69.1 °F 93% 30.15 in 10.0 mi Calm Calm - 0.00 in   Scattered Clouds
10:53 PM 71.1 °F - 68.0 °F 90% 30.15 in 10.0 mi Calm Calm - N/A   Clear
11:53 PM 69.1 °F - 68.0 °F 96% 30.15 in 7.0 mi Calm Calm - N/A   Clear